Wetterdaten: Montag, 18.02.2013
Datum Zeit Temp. A. Feuchte A. Luftdruck Regen Wind Richtung Richtung Sonnenschein UV Solar Windben
18.02.2013 00:00 2,6 C 89 % 1022,6 hPa 0,0 mm 0,0 km/h (0 Bft) S 180 0 min 0 UV-I 0 W/m 3,2 km/h (1 Bft)
18.02.2013 00:10 2,6 C 89 % 1022,6 hPa 0,0 mm 0,0 km/h (0 Bft) S 180 0 min 0 UV-I 0 W/m 1,6 km/h (1 Bft)
18.02.2013 00:20 2,7 C 89 % 1022,5 hPa 0,0 mm 0,0 km/h (0 Bft) S 180 0 min 0 UV-I 0 W/m 1,6 km/h (1 Bft)
18.02.2013 00:30 2,7 C 89 % 1022,5 hPa 0,0 mm 0,0 km/h (0 Bft) S 180 0 min 0 UV-I 0 W/m 1,6 km/h (1 Bft)
18.02.2013 00:40 2,7 C 89 % 1022,5 hPa 0,0 mm 0,0 km/h (0 Bft) S 180 0 min 0 UV-I 0 W/m 1,6 km/h (1 Bft)
18.02.2013 00:50 2,7 C 89 % 1022,5 hPa 0,0 mm 0,0 km/h (0 Bft) S 180 0 min 0 UV-I 0 W/m 1,6 km/h (1 Bft)
18.02.2013 01:00 2,6 C 89 % 1022,4 hPa 0,0 mm 0,0 km/h (0 Bft) S 180 0 min 0 UV-I 0 W/m 3,2 km/h (1 Bft)
18.02.2013 01:10 2,6 C 89 % 1022,3 hPa 0,0 mm 0,0 km/h (0 Bft) S 180 0 min 0 UV-I 0 W/m 3,2 km/h (1 Bft)
18.02.2013 01:20 2,6 C 89 % 1022,3 hPa 0,0 mm 1,6 km/h (1 Bft) S 180 0 min 0 UV-I 0 W/m 4,8 km/h (1 Bft)
18.02.2013 01:30 2,6 C 89 % 1022,3 hPa 0,0 mm 1,6 km/h (1 Bft) S 180 0 min 0 UV-I 0 W/m 4,8 km/h (1 Bft)
18.02.2013 01:40 2,5 C 88 % 1022,2 hPa 0,0 mm 0,0 km/h (0 Bft) S 180 0 min 0 UV-I 0 W/m 1,6 km/h (1 Bft)
18.02.2013 01:50 2,5 C 88 % 1022,1 hPa 0,0 mm 0,0 km/h (0 Bft) S 180 0 min 0 UV-I 0 W/m 3,2 km/h (1 Bft)
18.02.2013 02:00 2,4 C 88 % 1022,1 hPa 0,0 mm 0,0 km/h (0 Bft) S 180 0 min 0 UV-I 0 W/m 1,6 km/h (1 Bft)
18.02.2013 02:10 2,4 C 88 % 1022,1 hPa 0,0 mm 0,0 km/h (0 Bft) N 0 0 min 0 UV-I 0 W/m 0,0 km/h (0 Bft)
18.02.2013 02:20 2,4 C 88 % 1022,1 hPa 0,0 mm 0,0 km/h (0 Bft) S 180 0 min 0 UV-I 0 W/m 1,6 km/h (1 Bft)
18.02.2013 02:30 2,4 C 88 % 1022,1 hPa 0,0 mm 0,0 km/h (0 Bft) N 0 0 min 0 UV-I 0 W/m 0,0 km/h (0 Bft)
18.02.2013 02:40 2,4 C 88 % 1022,0 hPa 0,0 mm 0,0 km/h (0 Bft) N 0 0 min 0 UV-I 0 W/m 0,0 km/h (0 Bft)
18.02.2013 02:50 2,4 C 88 % 1022,0 hPa 0,0 mm 0,0 km/h (0 Bft) N 0 0 min 0 UV-I 0 W/m 0,0 km/h (0 Bft)
18.02.2013 03:00 2,3 C 88 % 1021,9 hPa 0,0 mm 0,0 km/h (0 Bft) S 180 0 min 0 UV-I 0 W/m 1,6 km/h (1 Bft)
18.02.2013 03:10 2,3 C 88 % 1021,8 hPa 0,0 mm 0,0 km/h (0 Bft) S 180 0 min 0 UV-I 0 W/m 3,2 km/h (1 Bft)
18.02.2013 03:20 2,3 C 88 % 1021,8 hPa 0,0 mm 0,0 km/h (0 Bft) S 180 0 min 0 UV-I 0 W/m 4,8 km/h (1 Bft)
18.02.2013 03:30 2,3 C 88 % 1021,8 hPa 0,0 mm 0,0 km/h (0 Bft) S 180 0 min 0 UV-I 0 W/m 1,6 km/h (1 Bft)
18.02.2013 03:40 2,2 C 88 % 1021,8 hPa 0,0 mm 0,0 km/h (0 Bft) S 180 0 min 0 UV-I 0 W/m 1,6 km/h (1 Bft)
18.02.2013 03:50 2,2 C 88 % 1021,7 hPa 0,0 mm 1,6 km/h (1 Bft) S 180 0 min 0 UV-I 0 W/m 8,0 km/h (2 Bft)
18.02.2013 04:00 2,2 C 87 % 1021,7 hPa 0,0 mm 0,0 km/h (0 Bft) S 180 0 min 0 UV-I 0 W/m 3,2 km/h (1 Bft)
18.02.2013 04:10 2,2 C 87 % 1021,7 hPa 0,0 mm 0,0 km/h (0 Bft) S 180 0 min 0 UV-I 0 W/m 1,6 km/h (1 Bft)
18.02.2013 04:20 2,2 C 87 % 1021,8 hPa 0,0 mm 0,0 km/h (0 Bft) S 180 0 min 0 UV-I 0 W/m 1,6 km/h (1 Bft)
18.02.2013 04:30 2,2 C 87 % 1021,8 hPa 0,0 mm 0,0 km/h (0 Bft) S 180 0 min 0 UV-I 0 W/m 3,2 km/h (1 Bft)
18.02.2013 04:40 2,2 C 87 % 1021,7 hPa 0,0 mm 0,0 km/h (0 Bft) S 180 0 min 0 UV-I 0 W/m 3,2 km/h (1 Bft)
18.02.2013 04:50 2,2 C 87 % 1021,7 hPa 0,0 mm 0,0 km/h (0 Bft) S 180 0 min 0 UV-I 0 W/m 3,2 km/h (1 Bft)
18.02.2013 05:00 2,1 C 87 % 1021,7 hPa 0,0 mm 0,0 km/h (0 Bft) S 180 0 min 0 UV-I 0 W/m 3,2 km/h (1 Bft)
18.02.2013 05:10 2,1 C 87 % 1021,7 hPa 0,0 mm 0,0 km/h (0 Bft) S 180 0 min 0 UV-I 0 W/m 3,2 km/h (1 Bft)
18.02.2013 05:20 2,1 C 87 % 1021,7 hPa 0,0 mm 0,0 km/h (0 Bft) S 180 0 min 0 UV-I 0 W/m 3,2 km/h (1 Bft)
18.02.2013 05:30 2,0 C 86 % 1021,8 hPa 0,0 mm 0,0 km/h (0 Bft) S 180 0 min 0 UV-I 0 W/m 3,2 km/h (1 Bft)
18.02.2013 05:40 1,9 C 86 % 1021,8 hPa 0,0 mm 0,0 km/h (0 Bft) S 180 0 min 0 UV-I 0 W/m 3,2 km/h (1 Bft)
18.02.2013 05:50 1,9 C 86 % 1021,8 hPa 0,0 mm 0,0 km/h (0 Bft) S 180 0 min 0 UV-I 0 W/m 1,6 km/h (1 Bft)
18.02.2013 06:00 1,9 C 86 % 1021,7 hPa 0,0 mm 0,0 km/h (0 Bft) S 180 0 min 0 UV-I 0 W/m 3,2 km/h (1 Bft)
18.02.2013 06:10 1,9 C 86 % 1021,8 hPa 0,0 mm 0,0 km/h (0 Bft) S 180 0 min 0 UV-I 0 W/m 3,2 km/h (1 Bft)
18.02.2013 06:20 1,9 C 86 % 1021,8 hPa 0,0 mm 0,0 km/h (0 Bft) S 180 0 min 0 UV-I 0 W/m 1,6 km/h (1 Bft)
18.02.2013 06:30 1,9 C 86 % 1021,8 hPa 0,0 mm 0,0 km/h (0 Bft) S 180 0 min 0 UV-I 0 W/m 3,2 km/h (1 Bft)
18.02.2013 06:40 1,9 C 86 % 1021,9 hPa 0,0 mm 0,0 km/h (0 Bft) S 180 0 min 0 UV-I 0 W/m 4,8 km/h (1 Bft)
18.02.2013 06:50 1,8 C 86 % 1021,9 hPa 0,0 mm 0,0 km/h (0 Bft) S 180 0 min 0 UV-I 0 W/m 3,2 km/h (1 Bft)
18.02.2013 07:00 1,8 C 86 % 1021,8 hPa 0,0 mm 0,0 km/h (0 Bft) S 180 0 min 0 UV-I 0 W/m 3,2 km/h (1 Bft)
18.02.2013 07:10 1,8 C 86 % 1021,6 hPa 0,0 mm 0,0 km/h (0 Bft) S 180 0 min 0 UV-I 0 W/m 3,2 km/h (1 Bft)
18.02.2013 07:20 1,8 C 86 % 1021,8 hPa 0,0 mm 0,0 km/h (0 Bft) S 180 0 min 0 UV-I 0 W/m 3,2 km/h (1 Bft)
18.02.2013 07:30 1,8 C 85 % 1021,8 hPa 0,0 mm 0,0 km/h (0 Bft) S 180 0 min 0 UV-I 0 W/m 3,2 km/h (1 Bft)
18.02.2013 07:40 1,8 C 85 % 1021,9 hPa 0,0 mm 0,0 km/h (0 Bft) S 180 0 min 0 UV-I 0 W/m 1,6 km/h (1 Bft)
18.02.2013 07:50 1,8 C 85 % 1021,9 hPa 0,0 mm 0,0 km/h (0 Bft) S 180 0 min 0 UV-I 5 W/m 3,2 km/h (1 Bft)
18.02.2013 08:00 1,8 C 85 % 1022,0 hPa 0,0 mm 0,0 km/h (0 Bft) S 185 0 min 0 UV-I 9 W/m 0,0 km/h (0 Bft)
18.02.2013 08:10 1,7 C 85 % 1022,0 hPa 0,0 mm 0,0 km/h (0 Bft) S 184 0 min 0 UV-I 13 W/m 1,6 km/h (1 Bft)
18.02.2013 08:20 1,7 C 85 % 1022,0 hPa 0,0 mm 0,0 km/h (0 Bft) N 0 0 min 0 UV-I 19 W/m 0,0 km/h (0 Bft)
18.02.2013 08:30 1,7 C 85 % 1022,0 hPa 0,0 mm 0,0 km/h (0 Bft) S 180 0 min 0 UV-I 21 W/m 3,2 km/h (1 Bft)
18.02.2013 08:40 1,8 C 84 % 1022,1 hPa 0,0 mm 0,0 km/h (0 Bft) S 180 0 min 0 UV-I 18 W/m 4,8 km/h (1 Bft)
18.02.2013 08:50 1,8 C 84 % 1022,1 hPa 0,0 mm 0,0 km/h (0 Bft) S 180 0 min 0 UV-I 28 W/m 3,2 km/h (1 Bft)
18.02.2013 09:00 1,8 C 83 % 1022,1 hPa 0,0 mm 0,0 km/h (0 Bft) S 180 0 min 0 UV-I 44 W/m 4,8 km/h (1 Bft)
18.02.2013 09:10 1,9 C 83 % 1022,1 hPa 0,0 mm 0,0 km/h (0 Bft) S 180 0 min 0 UV-I 51 W/m 4,8 km/h (1 Bft)
18.02.2013 09:20 2,1 C 83 % 1022,1 hPa 0,0 mm 0,0 km/h (0 Bft) S 180 0 min 0 UV-I 54 W/m 4,8 km/h (1 Bft)
18.02.2013 09:30 2,2 C 82 % 1022,2 hPa 0,0 mm 0,0 km/h (0 Bft) S 180 0 min 0 UV-I 62 W/m 3,2 km/h (1 Bft)
18.02.2013 09:40 2,3 C 81 % 1022,2 hPa 0,0 mm 0,0 km/h (0 Bft) S 180 0 min 0 UV-I 65 W/m 4,8 km/h (1 Bft)
18.02.2013 09:50 2,4 C 81 % 1022,1 hPa 0,0 mm 0,0 km/h (0 Bft) S 180 0 min 0 UV-I 69 W/m 3,2 km/h (1 Bft)
18.02.2013 10:00 2,6 C 80 % 1022,1 hPa 0,0 mm 0,0 km/h (0 Bft) S 180 0 min 0 UV-I 70 W/m 6,4 km/h (2 Bft)
18.02.2013 10:10 2,7 C 79 % 1022,1 hPa 0,0 mm 0,0 km/h (0 Bft) S 180 0 min 0 UV-I 77 W/m 6,4 km/h (2 Bft)
18.02.2013 10:20 2,8 C 78 % 1022,0 hPa 0,0 mm 0,0 km/h (0 Bft) S 180 0 min 1 UV-I 90 W/m 3,2 km/h (1 Bft)
18.02.2013 10:30 2,9 C 78 % 1022,0 hPa 0,0 mm 0,0 km/h (0 Bft) S 180 0 min 1 UV-I 100 W/m 6,4 km/h (2 Bft)
18.02.2013 10:40 3,0 C 76 % 1022,0 hPa 0,0 mm 1,6 km/h (1 Bft) S 180 0 min 1 UV-I 114 W/m 8,0 km/h (2 Bft)
18.02.2013 10:50 3,2 C 75 % 1022,1 hPa 0,0 mm 0,0 km/h (0 Bft) S 180 0 min 1 UV-I 128 W/m 6,4 km/h (2 Bft)
18.02.2013 11:00 3,3 C 75 % 1022,1 hPa 0,0 mm 0,0 km/h (0 Bft) S 180 0 min 1 UV-I 134 W/m 4,8 km/h (1 Bft)
18.02.2013 11:10 3,5 C 74 % 1022,0 hPa 0,0 mm 1,6 km/h (1 Bft) S 180 0 min 1 UV-I 137 W/m 6,4 km/h (2 Bft)
18.02.2013 11:20 3,7 C 74 % 1021,9 hPa 0,0 mm 1,6 km/h (1 Bft) S 180 0 min 1 UV-I 146 W/m 6,4 km/h (2 Bft)
18.02.2013 11:30 3,9 C 74 % 1022,0 hPa 0,0 mm 0,0 km/h (0 Bft) S 180 0 min 1 UV-I 153 W/m 4,8 km/h (1 Bft)
18.02.2013 11:40 4,1 C 72 % 1021,9 hPa 0,0 mm 0,0 km/h (0 Bft) S 180 0 min 1 UV-I 153 W/m 3,2 km/h (1 Bft)
18.02.2013 11:50 3,9 C 70 % 1021,9 hPa 0,0 mm 0,0 km/h (0 Bft) S 180 0 min 1 UV-I 146 W/m 3,2 km/h (1 Bft)
18.02.2013 12:00 3,8 C 70 % 1022,0 hPa 0,0 mm 0,0 km/h (0 Bft) S 180 0 min 1 UV-I 135 W/m 6,4 km/h (2 Bft)
18.02.2013 12:10 3,9 C 70 % 1021,9 hPa 0,0 mm 0,0 km/h (0 Bft) S 180 0 min 1 UV-I 127 W/m 6,4 km/h (2 Bft)
18.02.2013 12:20 3,8 C 69 % 1021,8 hPa 0,0 mm 0,0 km/h (0 Bft) S 180 0 min 1 UV-I 130 W/m 3,2 km/h (1 Bft)
18.02.2013 12:30 3,8 C 69 % 1021,8 hPa 0,0 mm 0,0 km/h (0 Bft) S 180 0 min 1 UV-I 127 W/m 4,8 km/h (1 Bft)
18.02.2013 12:40 3,8 C 70 % 1021,7 hPa 0,0 mm 0,0 km/h (0 Bft) S 180 0 min 1 UV-I 116 W/m 3,2 km/h (1 Bft)
18.02.2013 12:50 3,9 C 70 % 1021,7 hPa 0,0 mm 0,0 km/h (0 Bft) S 180 0 min 1 UV-I 113 W/m 6,4 km/h (2 Bft)
18.02.2013 13:00 4,0 C 70 % 1021,6 hPa 0,0 mm 0,0 km/h (0 Bft) S 180 0 min 1 UV-I 104 W/m 3,2 km/h (1 Bft)
18.02.2013 13:10 4,0 C 69 % 1021,5 hPa 0,0 mm 0,0 km/h (0 Bft) S 180 0 min 1 UV-I 107 W/m 4,8 km/h (1 Bft)
18.02.2013 13:20 3,9 C 69 % 1021,4 hPa 0,0 mm 1,6 km/h (1 Bft) S 180 0 min 1 UV-I 107 W/m 6,4 km/h (2 Bft)
18.02.2013 13:30 3,9 C 69 % 1021,3 hPa 0,0 mm 1,6 km/h (1 Bft) S 180 0 min 1 UV-I 104 W/m 6,4 km/h (2 Bft)
18.02.2013 13:40 4,2 C 71 % 1021,3 hPa 0,0 mm 0,0 km/h (0 Bft) S 180 0 min 1 UV-I 95 W/m 1,6 km/h (1 Bft)
18.02.2013 13:50 4,2 C 69 % 1021,3 hPa 0,0 mm 0,0 km/h (0 Bft) S 180 0 min 1 UV-I 100 W/m 3,2 km/h (1 Bft)
18.02.2013 14:00 4,3 C 71 % 1021,1 hPa 0,0 mm 0,0 km/h (0 Bft) S 180 0 min 1 UV-I 109 W/m 3,2 km/h (1 Bft)
18.02.2013 14:10 4,3 C 70 % 1021,0 hPa 0,0 mm 0,0 km/h (0 Bft) S 180 0 min 1 UV-I 114 W/m 6,4 km/h (2 Bft)
18.02.2013 14:20 4,4 C 68 % 1021,0 hPa 0,0 mm 0,0 km/h (0 Bft) S 180 0 min 1 UV-I 130 W/m 3,2 km/h (1 Bft)
18.02.2013 14:30 4,5 C 69 % 1021,0 hPa 0,0 mm 1,6 km/h (1 Bft) S-SO 157 0 min 1 UV-I 128 W/m 8,0 km/h (2 Bft)
18.02.2013 14:40 4,5 C 69 % 1021,0 hPa 0,0 mm 0,0 km/h (0 Bft) S-SO 157 0 min 1 UV-I 116 W/m 4,8 km/h (1 Bft)
18.02.2013 14:50 4,3 C 69 % 1020,8 hPa 0,0 mm 1,6 km/h (1 Bft) S-SO 157 0 min 1 UV-I 90 W/m 4,8 km/h (1 Bft)
18.02.2013 15:00 4,3 C 69 % 1020,9 hPa 0,0 mm 0,0 km/h (0 Bft) S-SO 157 0 min 0 UV-I 83 W/m 4,8 km/h (1 Bft)
18.02.2013 15:10 4,3 C 68 % 1021,0 hPa 0,0 mm 0,0 km/h (0 Bft) S-SO 157 0 min 0 UV-I 77 W/m 4,8 km/h (1 Bft)
18.02.2013 15:20 4,1 C 67 % 1020,9 hPa 0,0 mm 0,0 km/h (0 Bft) S-SO 157 0 min 0 UV-I 65 W/m 1,6 km/h (1 Bft)
18.02.2013 15:30 4,2 C 68 % 1020,9 hPa 0,0 mm 0,0 km/h (0 Bft) S-SO 157 0 min 0 UV-I 58 W/m 3,2 km/h (1 Bft)
18.02.2013 15:40 4,2 C 67 % 1020,7 hPa 0,0 mm 0,0 km/h (0 Bft) S-SO 157 0 min 0 UV-I 54 W/m 4,8 km/h (1 Bft)
18.02.2013 15:50 4,2 C 67 % 1020,7 hPa 0,0 mm 0,0 km/h (0 Bft) S-SO 157 0 min 0 UV-I 53 W/m 3,2 km/h (1 Bft)
18.02.2013 16:00 4,3 C 68 % 1020,7 hPa 0,0 mm 0,0 km/h (0 Bft) S-SO 159 0 min 0 UV-I 42 W/m 0,0 km/h (0 Bft)
18.02.2013 16:10 4,3 C 68 % 1020,6 hPa 0,0 mm 0,1 km/h (0 Bft) S-SO 159 0 min 0 UV-I 39 W/m 3,2 km/h (1 Bft)
18.02.2013 16:20 4,2 C 67 % 1020,6 hPa 0,0 mm 0,0 km/h (0 Bft) S-SO 157 0 min 0 UV-I 39 W/m 3,2 km/h (1 Bft)
18.02.2013 16:30 4,2 C 67 % 1020,6 hPa 0,0 mm 1,6 km/h (1 Bft) S-SO 157 0 min 0 UV-I 33 W/m 4,8 km/h (1 Bft)
18.02.2013 16:40 4,1 C 67 % 1020,5 hPa 0,0 mm 0,0 km/h (0 Bft) S-SO 157 0 min 0 UV-I 26 W/m 4,8 km/h (1 Bft)
18.02.2013 16:50 4,0 C 68 % 1020,5 hPa 0,0 mm 0,0 km/h (0 Bft) S-SO 157 0 min 0 UV-I 21 W/m 4,8 km/h (1 Bft)
18.02.2013 17:00 3,9 C 68 % 1020,4 hPa 0,0 mm 0,0 km/h (0 Bft) S-SO 157 0 min 0 UV-I 18 W/m 1,6 km/h (1 Bft)
18.02.2013 17:10 3,9 C 68 % 1020,4 hPa 0,0 mm 0,0 km/h (0 Bft) S-SO 157 0 min 0 UV-I 14 W/m 1,6 km/h (1 Bft)
18.02.2013 17:20 3,8 C 68 % 1020,3 hPa 0,0 mm 0,0 km/h (0 Bft) S-SO 157 0 min 0 UV-I 9 W/m 3,2 km/h (1 Bft)
18.02.2013 17:30 3,7 C 68 % 1020,3 hPa 0,0 mm 0,0 km/h (0 Bft) S-SO 157 0 min 0 UV-I 7 W/m 3,2 km/h (1 Bft)
18.02.2013 17:40 3,7 C 69 % 1020,2 hPa 0,0 mm 0,0 km/h (0 Bft) S-SO 157 0 min 0 UV-I 0 W/m 6,4 km/h (2 Bft)
18.02.2013 17:50 3,6 C 69 % 1020,2 hPa 0,0 mm 0,0 km/h (0 Bft) S-SO 157 0 min 0 UV-I 0 W/m 4,8 km/h (1 Bft)
18.02.2013 18:00 3,4 C 69 % 1020,2 hPa 0,0 mm 0,0 km/h (0 Bft) S-SO 157 0 min 0 UV-I 0 W/m 4,8 km/h (1 Bft)
18.02.2013 18:10 3,4 C 70 % 1020,3 hPa 0,0 mm 0,0 km/h (0 Bft) S-SO 157 0 min 0 UV-I 0 W/m 3,2 km/h (1 Bft)
18.02.2013 18:20 3,3 C 70 % 1020,2 hPa 0,0 mm 0,0 km/h (0 Bft) S-SO 157 0 min 0 UV-I 0 W/m 4,8 km/h (1 Bft)
18.02.2013 18:30 3,2 C 70 % 1020,3 hPa 0,0 mm 0,0 km/h (0 Bft) S-SO 157 0 min 0 UV-I 0 W/m 3,2 km/h (1 Bft)
18.02.2013 18:40 3,2 C 71 % 1020,1 hPa 0,0 mm 0,0 km/h (0 Bft) S-SO 157 0 min 0 UV-I 0 W/m 1,6 km/h (1 Bft)
18.02.2013 18:50 3,1 C 71 % 1020,2 hPa 0,0 mm 0,0 km/h (0 Bft) S-SO 157 0 min 0 UV-I 0 W/m 3,2 km/h (1 Bft)
18.02.2013 19:00 3,1 C 71 % 1020,1 hPa 0,0 mm 0,0 km/h (0 Bft) S-SO 157 0 min 0 UV-I 0 W/m 3,2 km/h (1 Bft)
18.02.2013 19:10 3,0 C 71 % 1019,9 hPa 0,0 mm 0,0 km/h (0 Bft) S-SO 157 0 min 0 UV-I 0 W/m 1,6 km/h (1 Bft)
18.02.2013 19:20 2,9 C 72 % 1019,9 hPa 0,0 mm 0,0 km/h (0 Bft) S-SO 157 0 min 0 UV-I 0 W/m 1,6 km/h (1 Bft)
18.02.2013 19:30 2,9 C 72 % 1019,9 hPa 0,0 mm 0,0 km/h (0 Bft) S-SO 157 0 min 0 UV-I 0 W/m 3,2 km/h (1 Bft)
18.02.2013 19:40 2,8 C 73 % 1019,8 hPa 0,0 mm 0,0 km/h (0 Bft) S-SO 157 0 min 0 UV-I 0 W/m 3,2 km/h (1 Bft)
18.02.2013 19:50 2,8 C 73 % 1019,7 hPa 0,0 mm 0,0 km/h (0 Bft) S-SO 157 0 min 0 UV-I 0 W/m 1,6 km/h (1 Bft)
18.02.2013 20:00 2,7 C 73 % 1019,7 hPa 0,0 mm 0,0 km/h (0 Bft) S-SO 157 0 min 0 UV-I 0 W/m 3,2 km/h (1 Bft)
18.02.2013 20:10 2,7 C 73 % 1019,7 hPa 0,0 mm 0,0 km/h (0 Bft) S-SO 157 0 min 0 UV-I 0 W/m 4,8 km/h (1 Bft)
18.02.2013 20:20 2,5 C 73 % 1019,7 hPa 0,0 mm 0,0 km/h (0 Bft) S-SO 157 0 min 0 UV-I 0 W/m 1,6 km/h (1 Bft)
18.02.2013 20:30 2,4 C 74 % 1019,6 hPa 0,0 mm 0,0 km/h (0 Bft) S-SO 157 0 min 0 UV-I 0 W/m 3,2 km/h (1 Bft)
18.02.2013 20:40 2,2 C 74 % 1019,7 hPa 0,0 mm 0,0 km/h (0 Bft) S-SO 157 0 min 0 UV-I 0 W/m 4,8 km/h (1 Bft)
18.02.2013 20:50 2,1 C 74 % 1019,7 hPa 0,0 mm 0,0 km/h (0 Bft) S-SO 157 0 min 0 UV-I 0 W/m 1,6 km/h (1 Bft)
18.02.2013 21:00 2,0 C 74 % 1019,7 hPa 0,0 mm 0,0 km/h (0 Bft) N 0 0 min 0 UV-I 0 W/m 0,0 km/h (0 Bft)
18.02.2013 21:10 1,9 C 74 % 1019,5 hPa 0,0 mm 0,0 km/h (0 Bft) N 0 0 min 0 UV-I 0 W/m 0,0 km/h (0 Bft)
18.02.2013 21:20 1,8 C 74 % 1019,6 hPa 0,0 mm 0,0 km/h (0 Bft) N 0 0 min 0 UV-I 0 W/m 0,0 km/h (0 Bft)
18.02.2013 21:30 1,7 C 74 % 1019,5 hPa 0,0 mm 0,0 km/h (0 Bft) N 0 0 min 0 UV-I 0 W/m 0,0 km/h (0 Bft)
18.02.2013 21:40 1,6 C 75 % 1019,7 hPa 0,0 mm 0,0 km/h (0 Bft) N 0 0 min 0 UV-I 0 W/m 0,0 km/h (0 Bft)
18.02.2013 21:50 1,5 C 75 % 1019,6 hPa 0,0 mm 0,0 km/h (0 Bft) S-SO 157 0 min 0 UV-I 0 W/m 1,6 km/h (1 Bft)
18.02.2013 22:00 1,3 C 75 % 1019,5 hPa 0,0 mm 0,0 km/h (0 Bft) S-SO 157 0 min 0 UV-I 0 W/m 1,6 km/h (1 Bft)
18.02.2013 22:10 1,3 C 75 % 1019,4 hPa 0,0 mm 0,0 km/h (0 Bft) S-SO 157 0 min 0 UV-I 0 W/m 1,6 km/h (1 Bft)
18.02.2013 22:20 1,3 C 76 % 1019,4 hPa 0,0 mm 0,0 km/h (0 Bft) S-SO 157 0 min 0 UV-I 0 W/m 1,6 km/h (1 Bft)
18.02.2013 22:30 1,1 C 76 % 1019,3 hPa 0,0 mm 0,0 km/h (0 Bft) N 0 0 min 0 UV-I 0 W/m 0,0 km/h (0 Bft)
18.02.2013 22:40 1,1 C 76 % 1019,2 hPa 0,0 mm 0,0 km/h (0 Bft) N 0 0 min 0 UV-I 0 W/m 0,0 km/h (0 Bft)
18.02.2013 22:50 0,9 C 76 % 1019,1 hPa 0,0 mm 0,0 km/h (0 Bft) N 0 0 min 0 UV-I 0 W/m 0,0 km/h (0 Bft)
18.02.2013 23:00 0,8 C 76 % 1019,1 hPa 0,0 mm 0,0 km/h (0 Bft) N 0 0 min 0 UV-I 0 W/m 0,0 km/h (0 Bft)
18.02.2013 23:10 0,7 C 76 % 1019,1 hPa 0,0 mm 0,0 km/h (0 Bft) N 0 0 min 0 UV-I 0 W/m 0,0 km/h (0 Bft)
18.02.2013 23:20 0,6 C 77 % 1019,0 hPa 0,0 mm 0,0 km/h (0 Bft) N 0 0 min 0 UV-I 0 W/m 0,0 km/h (0 Bft)
18.02.2013 23:30 0,6 C 77 % 1019,0 hPa 0,0 mm 0,0 km/h (0 Bft) N 0 0 min 0 UV-I 0 W/m 0,0 km/h (0 Bft)
18.02.2013 23:40 0,4 C 77 % 1018,9 hPa 0,0 mm 0,0 km/h (0 Bft) N 0 0 min 0 UV-I 0 W/m 0,0 km/h (0 Bft)
18.02.2013 23:50 0,3 C 78 % 1018,9 hPa 0,0 mm 0,0 km/h (0 Bft) N 0 0 min 0 UV-I 0 W/m 0,0 km/h (0 Bft)
_ Min-Zeit 23:50 15:20 23:40 - 00:00 - - - - - 02:10
Minimum _ 0.3 C 67 % 1018.9 hPa - 0.0 km/h (0 Bft) - - - - - 0.0 km/h (0 Bft)
_ Max-Zeit 14:30 00:00 00:00 00:00 01:20 - - 00:00 11:30 11:30 03:50
Maximum _ 4.6 C 89 % 1022.6 hPa 0.0 mm 1.6 km/h
S (1 Bft)
- - 0 min 1 UV-I 153 W/m 8.0 km/h
S (2 Bft)
Durchschnitt _ 2.7 C 78 % 1021.1 hPa #0.0 mm 0.1 km/h (0 Bft) S - #0 min. 1 UV-I 78 W/m 3.1 km/h (1 Bft)